Starlink 5169

operational
NORAD ID: 54060 Int'l Des: 2022-136 Owner: SPXS Country: US Constellation: starlink
LEOCIRCULAR

About Starlink 5169

Description loading...

Live Position

Loading 3D Globe...

Upcoming Passes

Altitude History

Altitude vs Time

uPlot chart will show altitude changes over time

Two-Line Element Set

1 54060U 22136K 25318.72419941 .00000415 00000-0 44198-4 0 9995
2 54060 53.2153 109.8747 0001237 96.7460 263.3673 15.08827075169916
Epoch: Nov 14, 2025 • Age: 9 hours

Current Status

Altitude 556.6 km
Velocity 7.58 km/s
Sub-Earth Point -46.92°S, 38.43°W
Launch Date Oct 20, 2022
Age 3 years
Type internet

Technical Details

Classification Payload
Mass 305.00 kg
Dry Mass 290.00 kg
Total Mass 305.00 kg
Length 0.20 m
Diameter 2.80 m
Span 9.00 m
Shape Box + pan
Manufacturer SPXS
Bus Type Starlink
Phase Status In Orbit
Owner/State SPXS/US

Large Constellations

Loading constellations...